Regional Weather Roundup
Issued by NWS

Home | Current Version | Previous Version | Text Only | Print | Product List | Glossary Off
Versions: 1 2 3 4 5 6 7 8 9 10 11 12 13 14 15 16 17 18 19 20 21 22 23 24 25 26 27 28 29 30 31 32 33 34 35 36 37 38 39 40 41 42 43 44 45 46 47 48 49 50

273
ASUS45 KCYS 100710
RWRWY

WYOMING REGIONAL WEATHER ROUNDUP
NATIONAL WEATHER SERVICE CHEYENNE WY
1200 AM MST WED FEB 10 2016

NOTE:  "FAIR" INDICATES FEW OR NO CLOUDS BELOW 12,000 FEET
WITH NO SIGNIFICANT WEATHER AND/OR OBSTRUCTIONS TO VISIBILITY.

WYZ001-100800-
YELLOWSTONE NATIONAL PARK

CITY           SKY/WX    TMP DP  RH WIND       PRES   REMARKS
LK YELLOWSTONE   N/A     11   7  84 CALM      30.43S
W YELLOWSTONE  NOT AVBL

$$
WYZ002>013-054>058-071-098>099-100800-
NORTHERN WYOMING

CITY           SKY/WX    TMP DP  RH WIND       PRES   REMARKS
JACKSON        FAIR       7   5  92 N9        30.45S WCI  -7
CODY           FAIR      52  16  24 W12G21    30.17S
GREYBULL       FAIR      25  21  85 SE5       30.20F WCI  19
WORLAND        FAIR      25  22  88 W5        30.20F WCI  19
SHERIDAN       FAIR      31  20  63 S3        30.06F
BUFFALO        FAIR      41  19  41 CALM      30.09F
GILLETTE       FAIR      40  24  53 SW15      30.06F WCI  32
HULETT         FAIR      39  28  65 SW13      30.05F WCI  32
NEWCASTLE      FAIR      34  25  69 N12       30.08F WCI  25

$$
WYZ014>020-022>026-101>103-100800-
CENTRAL WYOMING

CITY           SKY/WX    TMP DP  RH WIND       PRES   REMARKS
BIG PINEY      FAIR      19  14  81 E5        30.41R WCI  12
PINEDALE       FAIR      14  14 100 NW6       30.41S WCI   5
DUBOIS         FAIR      32  14  47 NW21      30.33F WCI  20
LANDER         FAIR      28  18  66 CALM      30.25F
RIVERTON       FAIR      24  18  77 CALM      30.27F
CASPER         FLURRIES  35  22  58 SW32G44   30.20F WCI  21
DOUGLAS        FAIR      32  23  69 NW12        N/A  WCI  23

$$
WYZ021-027>030-104>119-100800-
SOUTHERN WYOMING

CITY           SKY/WX    TMP DP  RH WIND       PRES   REMARKS
EVANSTON       FAIR      30  20  66 S5        30.43S WCI  25
FORT BRIDGER   SUNNY     32  14  47 W13       30.44S WCI  22
ROCK SPRINGS   FAIR      31  19  61 SW13      30.39F WCI  21
DIXON          FAIR      25  17  73 E12       30.45F WCI  14
RAWLINS        FAIR      36  17  46 S9G17     30.36F WCI  29
SARATOGA       FAIR      14  10  85 CALM      30.39F
LARAMIE        FAIR      25  15  66 CALM      30.28F
CHEYENNE       FAIR      39  17  41 W15       30.20F WCI  31
TORRINGTON     FAIR      33  24  69 W5        30.13F WCI  29
PINE BLUFFS    FAIR      32  23  69 W10       30.19F WCI  24

$$




USA.gov is the U.S. government's official web portal to all federal, state and local government web resources and services.